Cedar Rapids, IA

6:36 PM CST on November 11, 2019 (GMT -0600)
The Eastern Iowa Airport

Weather History for KCID - September, 2019

Change the Weather History Date:

Thursday, September 5, 2019

  Actual Average Record
Temperature  
Mean Temperature 63 °F 67 °F  
Max Temperature 77 °F 78 °F 102 °F (1899)
Min Temperature 49 °F 56 °F 42 °F (1974)
Degree Days  
Heating Degree Days 2 2  
Month to date heating degree days 6 8  
Since 1 July heating degree days 14 27  
Cooling Degree Days 0 4  
Month to date cooling degree days 11 21  
Year to date cooling degree days 663 689  
Growing Degree Days 12 (Base 50)    
Moisture  
Dew Point 58 °F    
Average Humidity 80    
Maximum Humidity 100    
Minimum Humidity 60    
Precipitation  
Precipitation 0.00 in 0.12 in 1.87 in (1975)
Month to date precipitation 0.01 0.58  
Year to date precipitation 27.86 25.88  
Sea Level Pressure  
Sea Level Pressure 30.07 in    
Wind  
Wind Speed 8 mph (SSE)    
Max Wind Speed 17 mph    
Max Gust Speed 26 mph    
Visibility 10 miles    
Events      
T = Trace of Precipitation, MM = Missing Value Source: NWS Daily Summary

Daily Weather History Graph

Daily Weather History Graph

Search for Another Location

Airport or City:

Astronomy

Sep. 05, 2019 Rise Set
Actual Time 6:36 AM CDT 7:33 PM CDT
Civil Twilight 6:08 AM CDT 8:02 PM CDT
Nautical Twilight 5:34 AM CDT 8:36 PM CDT
Astronomical Twilight 4:58 AM CDT 9:11 PM CDT
Moon 1:50 PM CDT (9/5) 11:43 PM CDT (9/5)
Length of Visible Light 13h 54m
Length of Day
12h 57m
Waxing Crescent, 45% of the Moon is Illuminated
Sep 5
Waxing Crescent
Sep 5
First Quarter
Sep 13
Full
Sep 21
Last Quarter
Sep 28
New

Hourly Weather History & Observations

Time (CDT) Temp. Dew Point Humidity Pressure Visibility Wind Dir Wind Speed Gust Speed Precip Events Conditions
12:52 AM 53.1 °F 52.0 °F 96% 30.15 in 10.0 mi ESE 3.5 mph - N/A   Clear
1:52 AM 51.1 °F 50.0 °F 96% 30.15 in 10.0 mi ESE 3.5 mph - N/A   Clear
2:52 AM 51.1 °F 51.1 °F 100% 30.14 in 10.0 mi SSE 3.5 mph - N/A   Clear
3:52 AM 48.9 °F 48.9 °F 100% 30.15 in 8.0 mi Calm Calm - N/A   Clear
4:52 AM 50.0 °F 48.9 °F 96% 30.14 in 10.0 mi SE 3.5 mph - N/A   Clear
5:52 AM 50.0 °F 50.0 °F 100% 30.15 in 9.0 mi Calm Calm - N/A   Clear
6:52 AM 50.0 °F 50.0 °F 100% 30.16 in 9.0 mi ESE 4.6 mph - N/A   Clear
7:52 AM 55.0 °F 55.0 °F 100% 30.16 in 10.0 mi SSE 4.6 mph - N/A   Clear
8:52 AM 61.0 °F 57.9 °F 90% 30.16 in 10.0 mi SSE 9.2 mph - N/A   Overcast
9:52 AM 64.9 °F 59.0 °F 81% 30.14 in 10.0 mi SSE 9.2 mph - N/A   Mostly Cloudy
10:52 AM 66.9 °F 59.0 °F 76% 30.14 in 10.0 mi South 9.2 mph - N/A   Mostly Cloudy
11:52 AM 70.0 °F 59.0 °F 68% 30.12 in 10.0 mi South 11.5 mph - N/A   Partly Cloudy
12:52 PM 72.0 °F 60.1 °F 66% 30.09 in 10.0 mi South 10.4 mph - N/A   Partly Cloudy
1:52 PM 73.9 °F 61.0 °F 64% 30.07 in 10.0 mi SSE 13.8 mph 20.7 mph N/A   Clear
2:52 PM 75.0 °F 62.1 °F 64% 30.04 in 10.0 mi SSE 11.5 mph - N/A   Mostly Cloudy
3:52 PM 77.0 °F 62.1 °F 60% 30.01 in 10.0 mi South 13.8 mph - N/A   Clear
4:52 PM 77.0 °F 63.0 °F 62% 29.98 in 10.0 mi SSE 13.8 mph 23.0 mph N/A   Clear
5:52 PM 75.9 °F 63.0 °F 64% 29.97 in 10.0 mi South 12.7 mph 21.9 mph N/A   Clear
6:52 PM 73.0 °F 64.0 °F 73% 29.96 in 10.0 mi South 8.1 mph - N/A   Clear
7:52 PM 70.0 °F 64.0 °F 81% 29.96 in 10.0 mi SSE 3.5 mph - N/A   Clear
8:52 PM 66.9 °F 64.0 °F 90% 29.96 in 10.0 mi SSE 6.9 mph - N/A   Clear
9:52 PM 68.0 °F 64.0 °F 87% 29.95 in 10.0 mi SSE 6.9 mph - N/A   Mostly Cloudy
10:52 PM 66.9 °F 64.0 °F 90% 29.94 in 10.0 mi SSE 5.8 mph - N/A   Clear
11:52 PM 66.9 °F 64.0 °F 90% 29.93 in 10.0 mi South 5.8 mph - N/A   Overcast